When you browse on this site, cookies collect data to enhance your experience and personalize the content and advertising you see.
Visit our Privacy Policy to learn more. By continuing to use the site, you agree to this use of cookies and data.
  • In Portugal
  • List of Countries
  • For 7 days
  • Water Temperature
  • Satellite Maps
  • Weather Map
  • Weather Widgets
  • user-avatar
    Login

    Hourly Weather Bukavu

    Today, 23 May, Thursday

    Time Temperature Precipitation Wind Pressure Humidity
    00:00 +21°C° 0.2 mm 1 mps 688 mmHg 96%
    01:00 +21°C° 0.2 mm 1 mps 688 mmHg 97%
    02:00 +21°C° 0 mm 1 mps 688 mmHg 98%
    03:00 +20°C° 0 mm 1 mps 688 mmHg 98%
    04:00 +20°C° 0 mm 1 mps 687 mmHg 98%
    05:00 +20°C° 0 mm 1 mps 687 mmHg 99%
    06:00 +21°C° 0 mm 1 mps 688 mmHg 96%
    07:00 +23°C° 0 mm 1 mps 689 mmHg 93%
    08:00 +25°C° 0 mm 1 mps 689 mmHg 88%
    09:00 +28°C° 0 mm 1 mps 690 mmHg 73%
    10:00 +31°C° 0 mm 1 mps 690 mmHg 58%
    11:00 +34°C° 0 mm 1 mps 690 mmHg 43%
    12:00 +33°C° 0 mm 1 mps 689 mmHg 46%
    13:00 +31°C° 0 mm 0 mps 688 mmHg 49%
    14:00 +32°C° 0 mm 1 mps 688 mmHg 49%
    15:00 +29°C° 0 mm 0 mps 687 mmHg 55%
    16:00 +27°C° 0 mm 0 mps 687 mmHg 61%
    17:00 +26°C° 0 mm 0 mps 686 mmHg 67%
    18:00 +25°C° 0.1 mm 0 mps 687 mmHg 71%
    19:00 +24°C° 0.1 mm 0 mps 687 mmHg 75%
    20:00 +23°C° 0.1 mm 0 mps 687 mmHg 78%
    21:00 +22°C° 0.7 mm 0 mps 688 mmHg 84%
    22:00 +21°C° 0.7 mm 0 mps 688 mmHg 91%
    23:00 +20°C° 0.7 mm 0 mps 688 mmHg 97%

    Tomorrow, 24 May, Friday

    Time Temperature Precipitation Wind Pressure Humidity
    00:00 +22°C° 0.1 mm 1 mps 688 mmHg 97%
    01:00 +21°C° 0.1 mm 1 mps 688 mmHg 98%
    02:00 +21°C° 0.1 mm 1 mps 688 mmHg 98%
    03:00 +19°C° 0.3 mm 0 mps 688 mmHg 98%
    04:00 +19°C° 0.3 mm 0 mps 688 mmHg 98%
    05:00 +19°C° 0.3 mm 0 mps 688 mmHg 99%
    06:00 +19°C° 1.5 mm 0 mps 688 mmHg 99%
    07:00 +22°C° 1.5 mm 1 mps 689 mmHg 99%
    08:00 +22°C° 1.5 mm 1 mps 690 mmHg 99%
    09:00 +23°C° 1.7 mm 1 mps 690 mmHg 98%
    10:00 +23°C° 1.7 mm 1 mps 690 mmHg 98%
    11:00 +24°C° 1.7 mm 1 mps 690 mmHg 97%
    12:00 +24°C° 0.3 mm 0 mps 690 mmHg 83%
    13:00 +27°C° 0.3 mm 0 mps 690 mmHg 69%
    14:00 +29°C° 0.3 mm 0 mps 689 mmHg 55%
    15:00 +27°C° 0 mm 0 mps 689 mmHg 63%
    16:00 +26°C° 0 mm 0 mps 688 mmHg 72%
    17:00 +24°C° 0 mm 0 mps 687 mmHg 80%
    18:00 +23°C° 0.2 mm 0 mps 687 mmHg 86%
    19:00 +22°C° 0.2 mm 0 mps 688 mmHg 91%
    20:00 +21°C° 0.2 mm 0 mps 688 mmHg 97%
    21:00 +20°C° 0 mm 0 mps 688 mmHg 97%
    22:00 +22°C° 0 mm 1 mps 688 mmHg 97%
    23:00 +22°C° 0 mm 1 mps 689 mmHg 98%

    Day after tomorrow, 25 May, Saturday

    Time Temperature Precipitation Wind Pressure Humidity
    00:00 +21°C° 0 mm 1 mps 688 mmHg 98%
    01:00 +21°C° 0 mm 1 mps 688 mmHg 98%
    02:00 +21°C° 0 mm 1 mps 687 mmHg 98%
    03:00 +20°C° 0 mm 1 mps 687 mmHg 97%
    04:00 +20°C° 0 mm 1 mps 687 mmHg 97%
    05:00 +20°C° 0 mm 1 mps 687 mmHg 97%
    06:00 +21°C° 0 mm 1 mps 687 mmHg 95%
    07:00 +21°C° 0 mm 1 mps 688 mmHg 93%
    08:00 +22°C° 0 mm 1 mps 688 mmHg 91%
    09:00 +23°C° 0.1 mm 1 mps 689 mmHg 86%
    10:00 +24°C° 0.1 mm 1 mps 689 mmHg 81%
    11:00 +26°C° 0.1 mm 1 mps 689 mmHg 76%
    12:00 +27°C° 0 mm 1 mps 689 mmHg 68%
    13:00 +29°C° 0 mm 1 mps 688 mmHg 61%
    14:00 +28°C° 0 mm 0 mps 688 mmHg 53%
    15:00 +28°C° 0 mm 0 mps 687 mmHg 55%
    16:00 +30°C° 0 mm 1 mps 687 mmHg 58%
    17:00 +30°C° 0 mm 1 mps 687 mmHg 60%
    18:00 +25°C° 0.2 mm 0 mps 687 mmHg 70%
    19:00 +23°C° 0.2 mm 0 mps 687 mmHg 80%
    20:00 +21°C° 0.2 mm 0 mps 687 mmHg 90%
    21:00 +21°C° 0.5 mm 0 mps 687 mmHg 90%
    22:00 +20°C° 0.5 mm 0 mps 688 mmHg 91%
    23:00 +22°C° 0.5 mm 1 mps 688 mmHg 92%

    26 May, Sunday

    Time Temperature Precipitation Wind Pressure Humidity
    00:00 +22°C° 0.1 mm 1 mps 687 mmHg 93%
    01:00 +22°C° 0.1 mm 1 mps 687 mmHg 94%
    02:00 +21°C° 0.1 mm 1 mps 686 mmHg 95%
    03:00 +21°C° 0 mm 1 mps 686 mmHg 95%
    04:00 +21°C° 0 mm 1 mps 686 mmHg 95%
    05:00 +21°C° 0 mm 1 mps 686 mmHg 95%
    06:00 +22°C° 0 mm 1 mps 687 mmHg 89%
    07:00 +24°C° 0 mm 1 mps 687 mmHg 84%
    08:00 +25°C° 0 mm 1 mps 688 mmHg 79%
    09:00 +27°C° 0 mm 1 mps 688 mmHg 68%
    10:00 +29°C° 0 mm 1 mps 689 mmHg 57%
    11:00 +31°C° 0 mm 2 mps 689 mmHg 45%
    12:00 +32°C° 0 mm 1 mps 688 mmHg 42%
    13:00 +33°C° 0 mm 1 mps 688 mmHg 39%
    14:00 +35°C° 0 mm 1 mps 687 mmHg 35%
    15:00 +33°C° 0 mm 1 mps 686 mmHg 41%
    16:00 +32°C° 0 mm 1 mps 686 mmHg 47%
    17:00 +28°C° 0 mm 0 mps 686 mmHg 54%
    18:00 +25°C° 0.8 mm 0 mps 686 mmHg 67%
    19:00 +23°C° 0.8 mm 0 mps 686 mmHg 80%
    20:00 +20°C° 0.8 mm 0 mps 686 mmHg 93%
    21:00 +20°C° 0.7 mm 0 mps 687 mmHg 94%
    22:00 +19°C° 0.7 mm 0 mps 687 mmHg 95%
    23:00 +19°C° 0.7 mm 0 mps 687 mmHg 96%

    27 May, Monday

    Time Temperature Precipitation Wind Pressure Humidity
    00:00 +19°C° 0.6 mm 0 mps 687 mmHg 97%
    01:00 +19°C° 0.6 mm 0 mps 687 mmHg 97%
    02:00 +19°C° 0.6 mm 0 mps 686 mmHg 98%
    03:00 +21°C° 0.3 mm 1 mps 686 mmHg 98%
    04:00 +21°C° 0.3 mm 1 mps 687 mmHg 98%
    05:00 +21°C° 0.3 mm 1 mps 687 mmHg 98%
    06:00 +22°C° 0 mm 1 mps 687 mmHg 95%
    07:00 +23°C° 0 mm 1 mps 688 mmHg 92%
    08:00 +24°C° 0 mm 1 mps 689 mmHg 89%
    09:00 +26°C° 0 mm 2 mps 689 mmHg 75%
    10:00 +29°C° 0 mm 2 mps 689 mmHg 61%
    11:00 +32°C° 0 mm 2 mps 689 mmHg 48%
    12:00 +32°C° 0 mm 1 mps 688 mmHg 47%
    13:00 +32°C° 0 mm 1 mps 687 mmHg 47%
    14:00 +32°C° 0 mm 1 mps 686 mmHg 47%
    15:00 +31°C° 0 mm 1 mps 686 mmHg 52%
    16:00 +28°C° 0 mm 0 mps 686 mmHg 58%
    17:00 +27°C° 0 mm 0 mps 686 mmHg 64%
    18:00 +25°C° 0.1 mm 0 mps 686 mmHg 69%
    19:00 +24°C° 0.1 mm 0 mps 687 mmHg 74%
    20:00 +22°C° 0.1 mm 0 mps 687 mmHg 79%
    21:00 +21°C° 1 mm 0 mps 687 mmHg 85%
    22:00 +20°C° 1 mm 0 mps 687 mmHg 92%
    23:00 +19°C° 1 mm 0 mps 687 mmHg 98%

    28 May, Tuesday

    Time Temperature Precipitation Wind Pressure Humidity
    00:00 +19°C° 0 mm 0 mps 687 mmHg 98%
    01:00 +19°C° 0 mm 0 mps 687 mmHg 98%
    02:00 +19°C° 0 mm 0 mps 686 mmHg 98%
    03:00 +19°C° 0 mm 0 mps 687 mmHg 98%
    04:00 +18°C° 0 mm 0 mps 687 mmHg 98%
    05:00 +18°C° 0 mm 0 mps 687 mmHg 98%
    06:00 +19°C° 0 mm 0 mps 688 mmHg 95%
    07:00 +21°C° 0 mm 0 mps 689 mmHg 92%
    08:00 +22°C° 0 mm 0 mps 689 mmHg 89%
    09:00 +25°C° 0 mm 0 mps 690 mmHg 74%
    10:00 +30°C° 0 mm 1 mps 690 mmHg 59%
    11:00 +33°C° 0 mm 1 mps 690 mmHg 44%
    12:00 +32°C° 0.2 mm 1 mps 689 mmHg 51%
    13:00 +30°C° 0.2 mm 1 mps 687 mmHg 58%
    14:00 +29°C° 0.2 mm 1 mps 686 mmHg 65%
    15:00 +29°C° 0.4 mm 1 mps 686 mmHg 68%
    16:00 +28°C° 0.4 mm 1 mps 686 mmHg 71%
    17:00 +28°C° 0.4 mm 1 mps 686 mmHg 74%
    18:00 +26°C° 0.5 mm 1 mps 687 mmHg 81%
    19:00 +24°C° 0.5 mm 1 mps 687 mmHg 89%
    20:00 +23°C° 0.5 mm 1 mps 687 mmHg 96%
    21:00 +20°C° 0.7 mm 0 mps 687 mmHg 96%
    22:00 +20°C° 0.7 mm 0 mps 687 mmHg 96%
    23:00 +20°C° 0.7 mm 0 mps 687 mmHg 97%
    Show more